Flag for Germany Weather for the Past 2 Weeks in Weiden in der Oberpfalz, Bavaria, Germany

Now
61 °F

Partly sunny.


Feels Like: 61 °F
Forecast: 41 / 64 °F
Wind: 8 mph from East

Location: Grafenwoehr

Current Time: May 1, 2016 at 12:18:48 PM

Latest Report: May 1, 2016 at 11:58 AM


Visibility: N/A

Pressure: 30.01 "Hg

Humidity: 36%

Dew Point: 34 °F

Location of Weiden in der OberpfalzLocation

Historic Weather in Weiden in der Oberpfalz — Graph

°F

Weiden in der Oberpfalz Temperature Yesterday

Maximum temperature yesterday: 66 °F (at 2:58 PM)
Minimum temperature yesterday: 28 °F (at 4:58 AM)
Average temperature yesterday: 50 °F

High & Low Weather Summary for the Past Weeks

 TemperatureHumidityPressure
High66 °F (Apr 30, 2:58 PM)100% (Apr 17, 12:58 AM)30.41 "Hg (Apr 17, 12:58 AM)
Low26 °F (Apr 29, 4:58 AM)22% (Apr 21, 5:58 PM)29.54 "Hg (Apr 26, 7:58 AM)
Average43 °F72%29.96 "Hg
* Reported Apr 16 10:03 AM — May 1 10:58 AM, Weiden in der Oberpfalz, Weather by CustomWeather, © 2016

Note: Actual official high and low records may vary slightly from our data, if they occured in-between our weather recording intervals... More about our weather records

Advertising

Weiden in der Oberpfalz Weather History for the Previous 24 Hours

Scroll right to see more
 ConditionsComfort  
Time TempWeatherWind HumidityBarometerVisibility
10:58 AM
Sun, May 1
61 °FPassing clouds.9 mph43%30.01 "HgN/A
9:58 AM56 °FPassing clouds.12 mph49%30.00 "HgN/A
8:58 AM54 °FPassing clouds.7 mph51%29.99 "HgN/A
7:58 AM50 °FSunny.3 mph55%29.97 "HgN/A
6:58 AM48 °FSunny.1 mph58%29.96 "HgN/A
5:58 AM49 °FClear.2 mph55%29.95 "HgN/A
4:58 AM49 °FClear.2 mph54%29.95 "HgN/A
3:58 AM47 °FClear.2 mph58%29.93 "HgN/A
2:58 AM48 °FClear.3 mph54%29.93 "HgN/A
1:58 AM49 °FClear.2 mph54%29.93 "HgN/A
12:58 AM50 °FClear.2 mph50%29.93 "HgN/A
11:58 PM
Sat, Apr 30
52 °FPassing clouds.6 mph47%29.93 "HgN/A
10:58 PM54 °FPassing clouds.6 mph44%29.93 "HgN/A
9:58 PM55 °FClear.3 mph44%29.93 "HgN/A
8:58 PM55 °FSunny.2 mph41%29.93 "Hg6 mi
7:58 PM60 °FSunny.2 mph36%29.95 "HgN/A
6:58 PM64 °FSunny.6 mph30%29.96 "HgN/A
5:58 PM65 °FPassing clouds.5 mph27%29.96 "HgN/A
4:58 PM66 °FPassing clouds.5 mph28%29.96 "HgN/A
3:58 PM66 °FScattered clouds.8 mph25%29.96 "Hg4 mi
2:58 PM66 °FOvercast.3 mph28%29.98 "Hg5 mi
1:58 PM64 °FHaze.6 mph29%29.99 "Hg4 mi
1:02 PM63 °FHaze.5 mph27%29.98 "Hg2 mi
12:01 PM61 °FLight rain. Scattered clouds.5 mph31%30.00 "HgN/A
Weather by CustomWeather, © 2016

See weather overviewHow to use our weather pages